Location: Calvatone
(45.1167°N, 10.4333°E)
Time: 10:51:06
(UTC+00:00)

Okean O Rocket - Pass Details

Date: 28 January 2023
Orbit: 620 x 643 km, 98.1° (Epoch: 28 March)

Event Time Altitude Azimuth Distance (km) Brightness Sun altitude
Exits shadow 18:47:35 22° 187° (S) 1,361 3.3 -26.1°
Maximum altitude 18:50:13 57° 259° (W) 742 2.1 -26.5°
Drops below altitude 10° 18:54:34 10° 339° (NNW) 2,028 4.4 -27.3°
Sets 18:56:50 0° 343° (NNW) 2,945 5.3 -27.7°
